Temp
79 80 78 79 79 81 81 82 82 84 85 84 82 74 69 70 71 78 82 83 83 82 80 79 79 79 78 77 73 74 72 70 73 68 67 67 68 69 69 70 69 67 66
74 75 74 74 75 77 79 80 81 81 82 82 84 81 75 72 71 71 74 78 81 81 79 78 77 78 76 76 73 73 70 70 71 65 64 59 62 64 66 67 66 66 65
69 70 71 72 73 72 71 73 75 76 79 80 81 81 79 78 76 75 74 73 74 76 77 77 76 75 76 74 74 72 70 66 67 68 67 59 58 59 62 63 64 65 63
68 68 69 69 70 69 69 71 72 73 74 76 75 75 76 75 76 77 78 77 75 71 70 72 73 72 72 73 73 73 68 67 63 63 67 68 64 57 51 58 60 62 62
67 67 67 68 69 68 68 70 72 73 73 73 73 73 73 76 77 78 76 77 77 74 71 70 69 69 69 68 71 71 70 66 65 60 60 62 59 60 58 51 51 57 58
66 67 68 69 69 69 68 69 70 72 73 72 72 71 69 71 73 74 74 75 76 75 72 68 67 67 67 68 67 68 67 65 65 65 62 60 58 56 55 54 53 51 53
65 65 65 65 66 65 66 68 69 69 71 72 71 72 70 70 70 72 73 74 74 72 71 67 66 65 66 66 66 65 64 64 63 63 62 63 62 62 59 55 48 49 47
64 64 64 64 64 64 64 65 66 66 69 69 70 71 72 71 71 71 72 73 73 74 75 70 66 65 65 64 64 63 63 63 62 62 63 61 60 56 54 51 45 42 42
63 63 64 64 64 64 63 63 64 65 66 66 68 69 70 69 68 69 70 71 72 73 73 74 70 65 64 63 62 61 60 60 59 59 60 58 54 50 48 47 45 44 37
62 62 63 63 63 63 62 63 64 63 64 64 65 66 65 65 65 65 65 65 67 69 69 70 71 67 61 61 60 58 57 56 55 54 54 45 44 43 43 41 40 40 39
61 61 61 62 62 62 61 62 62 61 61 62 63 63 63 63 64 64 63 62 61 62 62 64 64 61 59 58 57 55 54 53 49 47 45 43 41 41 39 40 39 39 40
59 59 60 60 60 60 60 59 59 59 59 60 60 60 60 59 58 57 59 60 59 60 59 58 58 57 57 55 54 50 50 47 46 44 44 41 42 40 40 38 38 37 37
57 58 58 58 58 58 58 57 57 57 57 57 57 56 55 54 53 53 53 54 54 54 54 53 52 51 50 50 49 47 45 43 42 42 40 40 39 37 38 37 36 35 35
55 55 55 56 57 56 55 55 55 55 55 54 53 51 50 49 49 48 49 48 48 47 48 47 46 46 46 45 44 42 40 40 40 40 40 39 38 37 36 35 34 34 33
54 53 52 54 55 54 54 54 53 53 53 52 50 49 48 48 46 45 44 44 44 45 45 44 44 44 43 43 41 41 39 39 37 38 38 38 39 39 38 35 33 33 33
53 51 51 52 52 52 52 52 51 50 51 50 49 48 47 45 43 43 42 43 43 43 43 42 42 41 43 44 43 40 37 36 35 33 33 34 36 38 39 38 39 40 36
52 51 50 51 51 51 51 50 49 50 48 47 47 46 45 42 40 40 40 39 38 38 37 36 39 40 41 43 41 39 35 33 33 33 33 34 37 38 38 38 39 40 40
51 50 51 50 50 51 51 49 48 47 44 43 43 44 41 38 38 37 36 36 36 35 35 35 35 35 36 38 37 36 32 32 32 33 33 34 34 35 38 38 36 36 38
52 51 51 48 48 49 49 48 45 43 41 39 39 39 38 37 37 35 35 34 34 34 33 33 33 33 34 37 37 36 35 35 35 37 37 37 36 37 39 37 35 36 37
51 50 49 48 48 48 49 46 43 41 39 39 38 38 38 37 36 36 35 35 35 33 34 33 36 38 37 39 41 41 39 36 36 37 37 37 38 39 39 37 36 33 34
49 50 49 48 46 47 47 41 39 36 38 38 38 38 37 36 36 36 36 35 34 35 36 38 40 41 41 40 41 41 39 38 37 36 36 37 37 37 37 37 34 34 35
47 48 47 45 46 45 42 38 36 38 38 38 37 38 39 39 40 38 39 40 41 40 40 40 39 40 41 40 40 39 38 39 36 35 35 36 35 35 35 34 36 35 35
46 47 46 42 42 42 41 37 37 38 39 39 39 40 43 43 43 42 41 42 43 42 41 40 38 37 38 39 38 38 37 37 36 35 34 34 34 34 34 34 33 33 32
45 47 45 41 39 41 40 39 39 41 41 43 44 44 43 43 43 43 42 43 42 41 40 38 37 36 37 37 38 37 37 37 37 35 35 34 33 33 31 32 33 32 31
46 45 46 44 42 42 41 41 42 43 44 44 43 43 42 42 41 41 41 40 39 39 39 36 36 35 35 35 36 35 34 34 34 32 33 32 31 30 31 31 31 31 31
44 42 45 44 43 43 42 42 43 46 44 42 41 41 41 42 41 40 37 38 38 38 37 37 36 36 36 36 35 35 34 34 34 30 30 29 29 28 29 29 29 29 29
MSLP
1008.82 1009.19 1009.94 1010.18 1010.38 1010.42 1010.41 1010.40 1010.42 1010.49 1010.76 1010.75 1010.85 1011.90 1012.61 1013.12 1013.30 1012.86 1012.30 1012.51 1012.72 1013.08 1013.50 1013.84 1014.13 1014.31 1014.56 1014.87 1015.69 1016.11 1016.44 1016.97 1017.14 1017.83 1018.27 1018.58 1018.73 1018.95 1019.11 1019.13 1019.33 1019.73 1020.16
1009.30 1009.76 1010.42 1010.58 1010.58 1010.49 1010.47 1010.40 1010.40 1010.51 1010.61 1010.62 1010.43 1010.62 1011.78 1012.32 1012.65 1012.81 1012.72 1012.40 1012.04 1012.26 1012.77 1013.26 1013.48 1013.64 1014.03 1014.45 1015.00 1015.53 1015.88 1016.37 1016.76 1017.18 1017.82 1018.21 1018.74 1018.71 1018.74 1018.91 1019.11 1019.35 1019.74
1009.96 1010.37 1010.64 1010.72 1010.80 1011.04 1011.22 1011.10 1010.96 1010.81 1010.67 1010.67 1010.53 1010.48 1010.76 1011.19 1011.44 1011.71 1011.95 1012.24 1012.41 1012.39 1012.40 1012.67 1013.12 1013.39 1013.41 1013.64 1013.95 1014.70 1015.07 1015.66 1016.30 1016.46 1016.31 1016.86 1016.99 1017.66 1018.16 1018.54 1018.84 1019.01 1019.34
1010.75 1011.04 1011.06 1011.22 1011.39 1011.66 1011.65 1011.46 1011.36 1011.21 1011.09 1011.05 1010.94 1010.78 1010.39 1010.36 1010.53 1010.73 1010.99 1011.32 1011.60 1012.27 1012.63 1012.50 1012.64 1013.00 1013.15 1013.25 1013.40 1013.72 1014.28 1015.08 1015.53 1016.33 1015.85 1015.55 1016.19 1016.76 1018.04 1018.51 1018.57 1018.80 1019.04
1011.09 1011.23 1011.52 1011.70 1011.75 1011.95 1011.93 1011.74 1011.37 1011.21 1011.21 1011.16 1011.02 1010.90 1010.62 1010.39 1010.22 1010.33 1010.51 1010.72 1010.82 1011.15 1011.79 1012.21 1012.60 1012.66 1012.75 1012.86 1013.01 1013.16 1013.33 1013.99 1014.66 1015.17 1015.47 1015.99 1016.35 1016.46 1016.72 1017.74 1018.42 1018.81 1018.84
1011.40 1011.61 1011.85 1011.91 1011.88 1012.07 1012.02 1011.87 1011.56 1011.16 1011.07 1011.11 1011.04 1010.92 1010.85 1010.58 1010.19 1010.12 1010.17 1010.22 1010.36 1010.55 1010.96 1011.55 1012.09 1012.37 1012.54 1012.47 1012.66 1012.83 1012.88 1013.26 1013.70 1014.08 1014.60 1014.66 1015.25 1015.81 1016.35 1016.89 1017.62 1018.19 1018.62
1011.70 1011.87 1011.95 1012.06 1012.15 1012.22 1012.19 1012.01 1011.66 1011.32 1011.13 1010.99 1010.90 1010.73 1010.73 1010.68 1010.48 1010.31 1010.05 1009.98 1009.97 1010.13 1010.47 1010.94 1011.39 1011.73 1011.97 1012.15 1012.30 1012.44 1012.56 1012.82 1013.16 1013.42 1013.61 1013.90 1014.06 1014.42 1015.12 1016.15 1017.27 1017.81 1018.65
1011.80 1011.91 1012.08 1012.28 1012.37 1012.40 1012.44 1012.27 1011.97 1011.68 1011.38 1011.09 1010.97 1010.78 1010.65 1010.69 1010.53 1010.39 1010.16 1009.98 1009.78 1009.68 1009.69 1010.28 1010.75 1011.22 1011.48 1011.66 1011.85 1012.06 1012.20 1012.49 1012.70 1012.81 1013.03 1013.42 1014.00 1014.64 1014.92 1015.48 1016.83 1017.92 1018.73
1011.83 1011.99 1012.12 1012.37 1012.52 1012.61 1012.72 1012.67 1012.33 1011.99 1011.70 1011.43 1011.23 1011.01 1010.92 1010.97 1010.92 1010.72 1010.57 1010.42 1010.22 1010.02 1009.90 1009.78 1009.97 1010.49 1011.00 1011.27 1011.37 1011.48 1011.74 1012.13 1012.46 1012.79 1013.22 1013.61 1014.29 1015.12 1015.75 1015.87 1016.65 1017.29 1019.32
1011.79 1012.07 1012.22 1012.57 1012.73 1012.75 1012.85 1012.78 1012.74 1012.51 1012.26 1012.09 1011.83 1011.72 1011.64 1011.65 1011.53 1011.47 1011.24 1011.02 1010.78 1010.49 1010.23 1010.01 1009.92 1010.18 1010.64 1011.00 1011.22 1011.42 1011.74 1012.05 1012.32 1012.68 1013.21 1014.13 1015.10 1015.74 1016.29 1016.84 1016.63 1016.25 1017.69
1011.93 1012.27 1012.41 1012.71 1012.77 1012.90 1013.09 1013.06 1013.02 1012.97 1012.83 1012.65 1012.38 1012.18 1012.07 1012.02 1011.85 1011.67 1011.65 1011.58 1011.54 1011.23 1011.02 1010.68 1010.47 1010.63 1010.89 1011.17 1011.41 1011.53 1011.78 1012.14 1012.81 1013.30 1013.74 1014.50 1015.23 1015.96 1016.71 1017.33 1018.26 1017.39 1018.26
1012.29 1012.63 1012.77 1012.86 1013.01 1013.19 1013.27 1013.41 1013.58 1013.61 1013.45 1013.25 1012.94 1012.75 1012.79 1012.57 1012.66 1012.61 1012.42 1012.19 1011.98 1011.68 1011.55 1011.45 1011.25 1011.16 1011.25 1011.39 1011.57 1011.99 1012.27 1012.84 1013.46 1014.07 1014.54 1015.30 1015.94 1016.36 1016.89 1017.60 1017.65 1018.39 1018.67
1012.61 1012.87 1012.92 1013.01 1013.23 1013.53 1013.77 1013.97 1014.13 1014.08 1013.97 1013.70 1013.61 1013.67 1013.63 1013.62 1013.61 1013.55 1013.40 1013.18 1012.94 1012.73 1012.33 1012.39 1012.28 1012.21 1012.19 1012.23 1012.36 1012.69 1013.30 1013.75 1014.56 1014.89 1015.44 1016.02 1016.53 1017.09 1017.61 1017.99 1018.17 1018.54 1018.86
1012.74 1013.13 1013.28 1013.37 1013.75 1014.13 1014.32 1014.36 1014.43 1014.53 1014.31 1014.45 1014.37 1014.54 1014.51 1014.58 1014.54 1014.57 1014.26 1014.16 1014.08 1013.87 1013.62 1013.39 1013.10 1013.42 1013.23 1013.23 1013.66 1013.48 1013.88 1014.86 1015.84 1015.87 1016.12 1016.63 1016.97 1017.30 1017.85 1018.32 1018.51 1019.32 1019.40
1012.88 1013.38 1013.75 1013.96 1014.19 1014.37 1014.47 1014.77 1014.96 1015.07 1015.05 1014.85 1014.95 1015.05 1015.17 1015.30 1015.39 1015.21 1015.05 1015.07 1014.96 1014.73 1014.67 1014.28 1014.21 1014.27 1014.27 1014.29 1014.42 1014.20 1014.86 1015.71 1016.66 1016.84 1016.74 1017.27 1017.60 1017.93 1018.03 1018.52 1019.24 1019.36 1019.89
1013.21 1013.77 1014.14 1014.48 1014.64 1014.72 1014.92 1015.05 1015.38 1015.58 1015.52 1015.35 1015.14 1015.54 1015.42 1015.92 1016.18 1015.97 1015.81 1015.62 1015.71 1015.47 1015.20 1015.06 1015.18 1015.19 1015.24 1015.48 1015.66 1015.70 1016.10 1016.49 1017.19 1017.66 1017.80 1017.84 1018.25 1018.51 1018.69 1018.75 1019.37 1019.21 1019.75
1013.46 1014.09 1014.43 1014.74 1014.92 1015.10 1015.30 1015.59 1015.96 1015.96 1015.94 1015.83 1015.93 1016.22 1016.24 1016.72 1016.98 1016.94 1016.64 1016.54 1016.62 1016.48 1016.53 1016.38 1016.05 1016.36 1016.54 1016.87 1017.14 1017.33 1017.49 1017.87 1018.26 1018.41 1018.36 1018.53 1018.88 1018.80 1019.15 1019.19 1019.41 1019.35 1019.51
1013.65 1014.09 1014.52 1014.97 1015.28 1015.41 1015.82 1016.16 1016.29 1016.43 1016.66 1016.76 1016.77 1017.00 1016.94 1017.42 1017.70 1017.74 1017.56 1017.50 1017.51 1017.51 1017.49 1017.64 1017.92 1017.96 1018.17 1018.23 1018.24 1018.40 1018.61 1018.75 1019.09 1019.13 1018.97 1019.11 1019.42 1019.51 1019.16 1019.35 1019.56 1019.45 1019.49
1013.93 1014.32 1015.03 1015.68 1015.79 1015.91 1016.32 1016.47 1016.75 1017.28 1017.52 1017.44 1017.59 1017.74 1017.83 1018.09 1018.25 1018.26 1018.21 1018.40 1018.42 1018.61 1018.78 1018.88 1018.91 1018.90 1019.14 1019.23 1019.20 1019.32 1019.49 1019.52 1019.38 1019.28 1019.25 1019.34 1019.53 1019.48 1019.27 1019.38 1019.30 1019.25 1019.26
1014.34 1014.88 1015.43 1015.84 1016.02 1016.38 1016.55 1016.86 1017.33 1017.84 1017.99 1017.86 1018.19 1018.21 1018.33 1018.73 1018.74 1018.84 1018.99 1019.01 1019.16 1019.29 1019.43 1019.44 1019.45 1019.48 1019.58 1019.61 1019.44 1019.47 1019.44 1019.42 1019.46 1019.49 1019.48 1019.57 1019.54 1019.48 1019.47 1019.43 1019.19 1019.34 1019.55
1014.83 1015.30 1015.45 1015.81 1016.34 1016.68 1017.03 1017.53 1018.03 1018.46 1018.55 1018.40 1018.61 1018.67 1018.92 1019.12 1019.26 1019.32 1019.45 1019.55 1019.65 1019.63 1019.51 1019.45 1019.41 1019.44 1019.57 1019.78 1019.77 1019.61 1019.46 1019.37 1019.42 1019.46 1019.49 1019.63 1019.81 1019.82 1019.85 1019.85 1019.86 1019.78 1019.82
1015.24 1015.39 1015.56 1016.13 1016.61 1017.23 1017.73 1018.12 1018.45 1018.68 1018.86 1018.85 1018.92 1019.07 1019.15 1019.24 1019.39 1019.52 1019.57 1019.44 1019.34 1019.42 1019.53 1019.63 1019.77 1019.83 1019.93 1020.02 1020.10 1020.06 1020.00 1019.88 1019.74 1019.77 1019.83 1019.93 1020.16 1020.16 1020.13 1020.09 1019.93 1019.87 1019.78
1015.29 1015.55 1015.77 1016.47 1017.19 1017.64 1017.90 1018.29 1018.66 1018.83 1018.93 1019.09 1019.07 1019.07 1018.91 1019.08 1019.25 1019.36 1019.39 1019.23 1019.22 1019.32 1019.48 1019.60 1019.76 1020.03 1020.18 1020.30 1020.45 1020.41 1020.33 1020.30 1020.18 1020.22 1020.35 1020.32 1020.23 1020.10 1019.98 1019.99 1020.01 1019.96 1019.79
1015.15 1015.45 1016.02 1016.63 1017.16 1017.55 1017.93 1018.27 1018.58 1018.77 1018.83 1018.79 1018.87 1018.87 1018.94 1019.20 1019.33 1019.51 1019.51 1019.36 1019.44 1019.52 1019.67 1019.91 1020.01 1020.15 1020.24 1020.32 1020.39 1020.38 1020.30 1020.33 1020.21 1020.32 1020.15 1020.23 1020.21 1020.08 1020.07 1019.93 1019.80 1019.72 1019.69
1014.97 1015.43 1015.78 1016.35 1016.87 1017.29 1017.76 1018.18 1018.35 1018.47 1018.40 1018.66 1018.93 1019.08 1019.22 1019.38 1019.60 1019.80 1019.84 1019.84 1020.19 1020.08 1020.03 1020.31 1020.39 1020.43 1020.38 1020.66 1020.90 1020.90 1020.75 1020.71 1020.63 1020.60 1020.25 1020.06 1019.93 1019.87 1019.73 1019.71 1019.69 1019.72 1019.68
1014.78 1015.33 1015.57 1016.08 1016.66 1017.11 1017.46 1017.94 1018.22 1018.09 1018.36 1018.70 1019.04 1019.24 1019.40 1019.56 1019.70 1019.97 1020.33 1020.54 1020.57 1020.60 1020.61 1020.67 1020.70 1020.78 1020.98 1021.05 1021.10 1021.05 1020.97 1020.96 1020.80 1020.66 1020.30 1020.18 1020.07 1020.00 1019.81 1019.70 1019.58 1019.53 1019.55
Wind_Speed
11 5 6 8 9 10 10 11 12 12 10 8 8 8 8 8 8 11 13 14 13 13 13 10 11 11 11 11 11 11 11 8 7 6 5 4 6 7 6 6 6 7 8
7 5 6 7 8 8 9 11 11 11 10 8 8 8 8 7 8 8 10 13 13 14 12 13 12 13 10 13 13 14 9 8 9 7 6 5 5 7 8 7 7 9 7
3 2 3 3 2 4 5 6 9 10 10 11 8 7 9 8 9 10 9 11 14 12 12 13 12 12 11 10 13 13 15 10 9 12 6 4 6 6 6 9 7 9 7
6 4 4 5 5 5 4 4 3 6 8 10 10 12 10 10 8 9 7 9 11 12 13 11 13 12 9 12 12 11 12 10 11 8 10 4 1 4 3 3 7 6 9
4 4 4 4 5 5 5 5 5 3 3 6 9 9 11 9 8 8 10 11 9 12 12 13 11 10 10 12 13 13 15 12 9 10 4 7 3 3 2 4 4 6 4
3 4 4 3 4 5 6 6 6 6 4 3 4 8 10 11 9 9 8 7 7 7 9 10 11 11 11 11 12 14 13 13 13 10 10 9 8 8 5 4 4 6 7
3 4 5 6 7 8 8 7 7 8 7 6 6 5 6 8 11 11 8 10 8 7 8 7 9 9 12 12 11 12 12 14 13 15 11 10 10 5 8 5 2 3 2
3 4 5 6 7 8 9 9 8 8 8 7 7 7 6 5 5 7 7 7 8 8 8 9 9 10 11 10 10 8 10 11 13 15 13 9 8 3 2 4 6 1 2
3 4 5 6 7 7 8 8 9 8 8 8 7 7 6 7 7 8 8 6 9 7 10 10 7 9 9 10 10 8 9 9 10 10 11 5 2 3 2 3 2 5 3
2 4 5 5 5 5 6 7 8 8 8 8 7 6 6 7 7 7 8 9 9 10 10 9 8 5 3 6 5 5 5 6 5 4 6 6 4 5 4 3 1 6 4
3 5 4 5 4 4 5 6 8 9 9 9 8 8 8 8 8 7 8 8 8 8 9 10 9 4 1 2 4 4 3 5 3 3 7 7 8 5 5 4 2 5 3
2 4 4 4 3 4 5 7 7 8 9 9 9 9 9 9 10 10 10 10 9 8 7 7 7 6 4 2 2 3 4 5 4 5 6 8 7 8 7 4 7 3 4
3 4 4 3 3 4 5 6 7 8 8 9 9 9 9 9 9 10 10 11 10 8 8 8 8 7 6 6 5 7 8 9 8 8 8 9 10 8 5 4 5 4 5
3 4 4 2 2 3 5 6 7 7 8 7 8 8 9 9 9 9 10 9 9 9 9 9 10 9 8 9 9 11 12 12 8 9 9 8 7 8 7 6 6 4 5
3 4 4 3 1 2 4 5 6 6 6 7 8 8 9 9 8 9 9 8 8 8 8 9 9 8 7 7 8 11 11 11 9 9 9 8 10 12 8 5 4 5 3
3 1 1 1 1 3 4 4 5 5 6 6 8 8 9 9 9 9 9 9 9 9 10 11 10 10 7 14 14 12 9 10 9 9 8 8 10 9 10 10 8 6 4
2 2 1 1 2 4 4 5 5 5 6 7 8 8 9 8 8 8 10 10 10 11 12 13 13 12 11 19 18 17 9 9 8 7 6 7 6 7 4 4 1 0 2
1 2 1 1 2 3 3 4 5 6 6 6 7 7 9 8 7 7 8 9 9 10 10 12 11 11 12 20 20 18 8 8 7 6 6 5 4 2 2 2 2 2 4
2 3 2 3 2 3 3 4 6 5 5 6 7 7 7 7 7 7 9 8 9 10 9 8 10 10 10 15 13 8 5 6 6 5 5 4 2 2 1 3 3 3 2
3 4 4 4 2 2 3 4 4 4 5 7 6 7 8 8 7 7 7 8 9 8 7 7 7 11 8 8 8 5 3 4 3 3 3 5 6 5 5 5 4 3 3
3 4 4 4 4 4 3 5 5 5 5 7 6 7 6 7 7 6 6 7 7 6 5 5 5 7 7 8 10 9 5 4 3 3 3 3 6 7 7 7 5 5 5
5 5 5 5 5 4 6 6 5 4 4 5 6 7 7 6 6 6 4 4 5 5 5 5 5 4 5 7 8 8 7 5 2 2 2 3 6 6 6 5 6 7 6
5 5 6 7 5 6 6 5 4 5 6 6 6 6 7 6 5 4 3 3 3 3 3 2 2 3 2 3 4 6 7 7 5 4 4 5 6 6 5 1 4 5 3
7 6 7 8 8 7 6 6 6 6 7 7 6 6 6 5 4 3 1 2 2 2 2 2 2 2 1 2 2 3 2 2 3 1 3 5 5 4 4 4 3 2 2
8 7 8 8 8 8 8 7 7 8 6 6 5 5 4 4 4 4 4 3 4 5 2 3 2 3 2 4 5 5 5 5 6 6 4 3 3 3 3 2 2 2 2
9 7 7 9 9 9 9 8 8 7 6 5 4 3 3 3 3 4 5 8 6 6 7 6 5 1 2 3 4 6 8 7 8 5 4 4 3 3 3 3 3 2 4
Wind_Direction
254 259 279 270 273 259 256 250 248 242 239 241 231 190 203 220 233 238 244 231 223 223 216 214 224 218 217 209 200 219 208 213 206 180 199 213 212 212 218 213 196 193 191
275 270 291 268 262 269 262 256 249 246 242 243 245 210 214 227 226 235 239 254 237 221 221 217 222 217 215 221 196 218 206 205 202 187 175 196 200 223 214 206 209 201 191
180 166 91 73 92 34 350 298 280 276 260 260 265 261 218 231 221 219 220 230 242 255 229 228 224 232 219 217 213 206 208 203 197 205 176 201 225 151 190 208 209 211 196
113 94 62 58 53 39 19 359 328 277 264 261 261 261 257 242 235 246 240 232 222 230 243 246 232 227 224 228 222 206 214 199 201 200 232 265 30 185 169 234 216 222 216
77 68 51 23 38 24 1 343 340 353 326 270 256 255 252 260 256 251 250 249 237 220 218 228 246 237 228 230 227 221 208 206 211 206 180 228 199 262 230 172 191 225 231
63 47 43 10 11 3 345 330 316 316 320 312 280 257 265 274 265 253 257 261 252 249 208 209 223 231 239 230 229 234 224 209 218 199 207 195 193 203 202 232 149 188 196
47 24 19 4 4 352 341 327 317 311 312 298 292 278 269 267 269 272 269 260 250 245 241 216 227 232 234 237 233 229 223 218 218 222 208 210 216 217 202 203 152 171 110
20 15 7 358 354 352 353 344 335 316 314 305 302 299 289 277 272 266 272 276 272 268 244 212 218 231 234 232 228 227 227 221 226 224 228 218 222 209 191 173 142 225 159
353 360 350 359 349 356 3 354 351 353 356 346 324 315 315 325 311 309 297 288 290 299 303 297 226 213 234 240 229 224 224 220 226 230 237 212 177 143 116 98 112 132 164
349 352 343 347 345 356 5 6 7 9 12 3 2 352 351 344 339 332 328 328 320 316 304 296 284 309 248 245 228 229 226 217 216 216 204 105 111 103 85 64 132 122 141
358 335 338 348 349 4 9 11 11 6 6 1 353 355 354 348 342 342 342 338 327 323 319 317 311 311 287 250 232 219 197 205 134 103 121 114 120 122 108 114 103 89 114
2 341 339 340 9 19 21 20 12 2 3 357 357 8 4 4 3 357 349 344 336 336 339 336 331 342 321 264 203 120 84 98 118 116 113 113 113 113 119 122 114 101 55
14 349 338 355 17 29 28 19 12 6 4 6 8 9 13 11 13 8 8 7 1 12 23 26 26 34 32 43 61 81 81 78 86 96 107 110 114 112 109 92 102 100 96
9 1 342 339 37 14 20 13 12 9 13 17 24 19 21 21 19 19 23 23 21 28 36 51 59 49 57 74 76 85 92 82 85 99 104 104 111 118 113 103 90 97 86
344 346 336 319 350 35 24 15 13 13 10 31 35 30 29 29 31 37 40 41 43 50 53 60 59 65 67 74 90 92 93 102 92 78 83 87 102 110 109 108 102 98 111
305 323 332 335 333 23 10 14 15 13 22 29 43 34 43 39 35 43 53 56 56 55 57 60 59 56 60 78 85 79 85 89 93 91 80 82 82 94 106 114 155 155 163
292 201 209 24 16 18 1 18 16 21 29 30 40 35 49 48 48 50 55 53 55 58 52 48 55 57 65 73 72 71 65 71 70 76 77 84 71 63 84 96 69 356 304
219 180 140 72 42 31 32 39 39 37 48 50 49 45 62 65 61 53 48 51 55 57 62 58 54 59 59 70 72 67 59 71 67 70 82 95 123 136 49 3 56 240 229
54 58 85 135 79 38 39 54 59 60 71 68 64 64 69 71 72 63 65 66 69 66 62 62 65 67 63 64 69 82 102 110 101 96 78 85 147 150 269 272 210 264 268
71 193 161 127 136 95 93 100 92 93 79 79 74 73 80 89 76 74 69 78 83 81 79 80 92 93 90 82 69 88 94 85 91 80 81 50 21 6 356 330 345 337 324
174 173 151 117 104 88 109 102 96 88 79 89 89 82 81 84 82 83 86 90 91 92 79 77 98 91 81 68 53 37 37 24 37 25 34 57 15 15 354 340 319 328 328
176 181 143 127 112 117 126 127 105 101 89 92 99 102 106 100 105 106 113 119 109 100 101 98 89 68 73 45 55 45 36 19 21 18 18 56 3 339 325 319 315 312 319
188 178 150 136 142 151 143 132 126 127 125 120 111 122 118 111 112 108 111 103 91 84 80 75 82 79 55 85 52 35 21 36 5 14 15 328 321 318 299 262 314 307 283
186 174 157 156 155 159 153 147 152 151 151 146 134 126 117 116 110 109 69 81 80 77 67 64 54 66 44 36 6 352 8 339 345 349 308 324 304 290 289 293 270 251 307
185 178 181 169 165 159 160 163 166 173 160 137 135 130 127 120 102 60 34 88 50 21 46 56 34 358 20 43 9 350 345 359 346 327 305 299 308 304 284 263 263 280 288
179 192 187 168 171 173 171 174 186 181 155 153 157 159 153 153 143 142 111 68 87 80 78 65 33 61 11 353 350 339 335 331 332 316 297 309 305 298 305 304 306 316 299